NANAKWA Weather Reports


time (UTC)temp
F
wind
direction
speed
knots
gust
knots
rain 1hr
in
rain 24hr
in
rain mn
in
humidity
%
barometer
mb
20260906222422 60 202 8.7 10.4 0.00 0.00 0.00 1016.0
20260906215621 60 202 8.7 10.4 0.00 0.00 0.00 1017.0
20260906212820 60 202 8.7 10.4 0.00 0.00 0.00 1017.0
20260906210020 59 202 10.4 12.2 0.00 0.00 0.00 1017.0
20260906203219 59 202 10.4 12.2 0.00 0.00 0.00 1017.0
20260906200418 59 202 9.6 10.4 0.00 0.00 0.00 1017.0
20260906193617 59 202 9.6 10.4 0.00 0.00 0.00 1017.0
20260906190817 57 202 8.7 9.6 0.00 0.00 0.00 1018.0
20260906180714 57 180 5.2 7.0 0.00 0.00 0.00 1018.0
20260906173914 57 180 5.2 7.0 0.00 0.00 0.00 1018.0
20260906171113 57 180 5.2 7.0 0.00 0.00 0.00 1018.0
20260906164312 57 180 5.2 7.0 0.00 0.00 0.00 1018.0
20260906161511 57 180 5.2 7.0 0.00 0.00 0.00 1018.0
20260906154711 57 180 6.1 8.7 0.00 0.00 0.00 1018.0
20260906151910 57 180 6.1 8.7 0.00 0.00 0.00 1018.0
20260906145109 57 202 5.2 7.0 0.00 0.00 0.00 1018.0
20260906142309 57 202 5.2 7.0 0.00 0.00 0.00 1018.0
20260906135508 59 202 5.2 6.1 0.00 0.00 0.00 1018.0
20260906132708 59 202 5.2 6.1 0.00 0.00 0.00 1018.0
20260906125907 59 202 8.7 10.4 0.00 0.00 0.00 1018.0
20260906123106 59 202 8.7 10.4 0.00 0.00 0.00 1018.0
20260906120306 59 202 6.1 7.8 0.00 0.00 0.00 1018.0
20260906113505 59 202 6.1 7.8 0.00 0.00 0.00 1018.0
20260906110704 59 202 8.7 10.4 0.00 0.00 0.00 1018.0
20260906103904 59 202 8.7 10.4 0.00 0.00 0.00 1018.0
20260906101103 59 202 8.7 10.4 0.00 0.00 0.00 1018.0
20260906094302 59 202 7.8 10.4 0.00 0.00 0.00 1018.0
20260906091502 59 202 7.8 10.4 0.00 0.00 0.00 1018.0
20260906084701 59 202 8.7 12.2 0.00 0.00 0.00 1017.0
20260906081900 59 202 8.7 12.2 0.00 0.00 0.00 1017.0
20260906075100 60 202 10.4 13.0 0.00 0.00 0.00 1017.0
20260906072259 60 202 10.4 13.0 0.00 0.00 0.00 1017.0
20260906065458 60 180 14.8 17.4 0.00 0.00 0.00 1016.0
20260906062657 60 180 14.8 17.4 0.00 0.00 0.00 1016.0
20260906055857 60 202 13.0 16.5 0.00 0.00 0.00 1016.0
20260906053056 60 202 13.0 16.5 0.00 0.00 0.00 1016.0
20260906050255 62 202 14.8 17.4 0.00 0.00 0.00 1015.0
20260906040153 62 202 15.6 20.0 0.00 0.00 0.00 1015.0
20260906033352 62 202 15.6 20.0 0.00 0.00 0.00 1015.0
20260906030552 66 202 16.5 19.1 0.00 0.00 0.00 1014.0
20260906023751 66 202 16.5 19.1 0.00 0.00 0.00 1014.0
20260906020950 66 202 16.5 19.1 0.00 0.00 0.00 1014.0
20260906014150 66 202 12.2 13.9 0.00 0.00 0.00 1014.0
20260906011349 66 202 12.2 13.9 0.00 0.00 0.00 1014.0
20260906004548 69 135 0.9 1.7 0.00 0.00 0.00 1015.0
20260906001748 69 135 0.9 1.7 0.00 0.00 0.00 1015.0
20260905234947 68 360 0.0 0.0 0.00 0.00 0.00 1015.0
20260905232146 68 360 0.0 0.0 0.00 0.00 0.00 1015.0
20260905225346 68 360 0.0 0.0 0.00 0.00 0.00 1016.0